CW9425 Weather Reports


Display with metric or nautical units.
time (UTC)temp
F
wind
direction
speed
MPH
gust
MPH
rain 1hr
in
rain 24hr
in
rain mn
in
humidity
%
barometer
mb
20260510230529 77 105 6.0 0.0 0.00 0.00 0.00 28 1013.8
20260510230022 78 105 5.0 0.0 0.00 0.00 0.00 28 1013.9
20260510225503 78 133 5.0 0.0 0.00 0.00 0.00 28 1013.8
20260510225047 78 96 6.0 0.0 0.00 0.00 0.00 28 1013.9
20260510224535 78 80 6.0 0.0 0.00 0.00 0.00 28 1013.8
20260510224020 78 94 5.0 0.0 0.00 0.00 0.00 26 1013.7
20260510223503 78 125 6.0 0.0 0.00 0.00 0.00 27 1013.8
20260510223056 78 109 7.0 0.0 0.00 0.00 0.00 26 1013.8
20260510222529 79 75 4.0 0.0 0.00 0.00 0.00 26 1013.7
20260510222010 79 122 4.0 0.0 0.00 0.00 0.00 27 1013.7
20260510221601 79 69 6.0 0.0 0.00 0.00 0.00 27 1013.7
20260510221046 79 110 6.0 0.0 0.00 0.00 0.00 27 1013.9
20260510220528 79 99 6.0 0.0 0.00 0.00 0.00 27 1013.9
20260510220006 79 108 6.0 0.0 0.00 0.00 0.00 26 1013.9
20260510215551 79 107 6.0 0.0 0.00 0.00 0.00 26 1013.9
20260510215030 80 92 6.0 0.0 0.00 0.00 0.00 26 1013.9
20260510214514 80 94 7.0 0.0 0.00 0.00 0.00 27 1013.8
20260510214005 81 125 8.0 0.0 0.00 0.00 0.00 26 1013.9
20260510213547 82 46 6.0 0.0 0.00 0.00 0.00 25 1014.0
20260510213035 83 130 4.0 0.0 0.00 0.00 0.00 23 1014.1
20260510212519 84 98 3.0 0.0 0.00 0.00 0.00 23 1014.0
20260510212008 84 122 2.0 0.0 0.00 0.00 0.00 23 1014.1
20260510211554 85 122 2.0 0.0 0.00 0.00 0.00 23 1014.2
20260510211041 84 124 2.0 0.0 0.00 0.00 0.00 19 1014.2
20260510210525 84 225 3.0 0.0 0.00 0.00 0.00 14 1014.1
20260510210010 84 210 2.0 0.0 0.00 0.00 0.00 14 1014.2
20260510205602 84 241 0.0 0.0 0.00 0.00 0.00 14 1014.1
20260510205041 83 279 1.0 0.0 0.00 0.00 0.00 15 1014.2
20260510204519 83 279 2.0 0.0 0.00 0.00 0.00 14 1014.3
20260510204006 84 277 2.0 0.0 0.00 0.00 0.00 13 1014.3
20260510203549 84 284 2.0 0.0 0.00 0.00 0.00 14 1014.4
20260510203027 86 283 1.0 0.0 0.00 0.00 0.00 13 1014.4
20260510202505 86 281 0.0 0.0 0.00 0.00 0.00 14 1014.5
20260510202053 85 234 1.0 0.0 0.00 0.00 0.00 13 1014.4
20260510201528 85 232 1.0 0.0 0.00 0.00 0.00 15 1014.5
20260510201009 84 254 1.0 0.0 0.00 0.00 0.00 15 1014.5
20260510200552 84 254 1.0 0.0 0.00 0.00 0.00 15 1014.4
20260510200036 84 217 3.0 0.0 0.00 0.00 0.00 15 1014.4
20260510195517 84 186 2.0 0.0 0.00 0.00 0.00 15 1014.5
20260510195002 84 237 1.0 0.0 0.00 0.00 0.00 16 1014.5
20260510194544 84 221 1.0 0.0 0.00 0.00 0.00 15 1014.5
20260510194029 84 259 0.0 0.0 0.00 0.00 0.00 15 1014.6
20260510193513 84 107 0.0 0.0 0.00 0.00 0.00 15 1014.7
20260510193104 83 109 0.0 0.0 0.00 0.00 0.00 16 1014.8
20260510192544 83 211 1.0 0.0 0.00 0.00 0.00 15 1014.8
20260510192023 82 264 2.0 0.0 0.00 0.00 0.00 16 1014.8
20260510191502 82 239 1.0 0.0 0.00 0.00 0.00 17 1014.8
20260510191050 81 316 1.0 0.0 0.00 0.00 0.00 17 1014.8
20260510190535 81 351 1.0 0.0 0.00 0.00 0.00 16 1014.8
20260510190020 81 92 1.0 0.0 0.00 0.00 0.00 17 1014.9
20260510185503 81 33 1.0 0.0 0.00 0.00 0.00 16 1015.1
20260510185052 81 33 2.0 0.0 0.00 0.00 0.00 17 1015.0
20260510184538 80 345 3.0 0.0 0.00 0.00 0.00 16 1015.1
20260510184023 80 295 1.0 0.0 0.00 0.00 0.00 18 1014.9
20260510183504 80 338 0.0 0.0 0.00 0.00 0.00 16 1015.0
20260510183045 80 327 0.0 0.0 0.00 0.00 0.00 16 1015.0
20260510182530 79 325 1.0 0.0 0.00 0.00 0.00 16 1015.1
20260510182017 78 325 1.0 0.0 0.00 0.00 0.00 17 1015.1
20260510181558 78 271 3.0 0.0 0.00 0.00 0.00 18 1015.2
20260510181036 78 242 3.0 0.0 0.00 0.00 0.00 18 1015.1
20260510180513 78 253 3.0 0.0 0.00 0.00 0.00 18 1015.1
20260510175545 79 263 3.0 0.0 0.00 0.00 0.00 19 1015.0
20260510175030 79 295 2.0 0.0 0.00 0.00 0.00 19 1015.2
20260510174511 79 289 1.0 0.0 0.00 0.00 0.00 19 1015.2
20260510174057 78 219 0.0 0.0 0.00 0.00 0.00 22 1015.2
20260510173538 78 219 1.0 0.0 0.00 0.00 0.00 21 1015.2
20260510173014 78 218 2.0 0.0 0.00 0.00 0.00 20 1015.2
20260510172554 78 217 1.0 0.0 0.00 0.00 0.00 21 1015.3
20260510172043 78 264 1.0 0.0 0.00 0.00 0.00 21 1015.2
20260510171528 77 264 1.0 0.0 0.00 0.00 0.00 22 1015.3
20260510171014 77 281 0.0 0.0 0.00 0.00 0.00 22 1015.3
20260510170600 76 281 0.0 0.0 0.00 0.00 0.00 21 1015.3
20260510170040 76 281 0.0 0.0 0.00 0.00 0.00 21 1015.2
20260510165523 76 279 0.0 0.0 0.00 0.00 0.00 22 1015.3
20260510165003 76 269 0.0 0.0 0.00 0.00 0.00 22 1015.3
20260510164545 75 268 0.0 0.0 0.00 0.00 0.00 22 1015.2
20260510164022 74 268 1.0 0.0 0.00 0.00 0.00 22 1015.2
20260510163505 74 268 2.0 0.0 0.00 0.00 0.00 23 1015.2
20260510163048 74 264 2.0 0.0 0.00 0.00 0.00 23 1015.2
20260510162527 74 263 3.0 0.0 0.00 0.00 0.00 22 1015.2
20260510162008 74 261 2.0 0.0 0.00 0.00 0.00 22 1015.2
20260510161607 74 307 2.0 0.0 0.00 0.00 0.00 23 1015.2
20260510161038 74 325 2.0 0.0 0.00 0.00 0.00 23 1015.2
20260510160518 74 334 1.0 0.0 0.00 0.00 0.00 23 1015.2
20260510160155 74 296 2.0 0.0 0.00 0.00 0.00 23 1015.1
20260510155542 74 306 3.0 0.0 0.00 0.00 0.00 23 1015.2
20260510155026 74 275 3.0 0.0 0.00 0.00 0.00 23 1015.0
20260510154511 74 279 1.0 0.0 0.00 0.00 0.00 23 1015.1
20260510154056 74 310 0.0 0.0 0.00 0.00 0.00 23 1015.0
20260510153535 73 311 0.0 0.0 0.00 0.00 0.00 23 1015.1
20260510153012 73 307 0.0 0.0 0.00 0.00 0.00 23 1015.0
20260510152555 73 307 0.0 0.0 0.00 0.00 0.00 24 1015.0
20260510152034 72 304 1.0 0.0 0.00 0.00 0.00 24 1015.0
20260510151514 72 297 2.0 0.0 0.00 0.00 0.00 23 1014.9
20260510151059 72 301 2.0 0.0 0.00 0.00 0.00 24 1014.9
20260510150538 71 301 2.0 0.0 0.00 0.00 0.00 24 1014.9
20260510150016 71 280 2.0 0.0 0.00 0.00 0.00 24 1015.0
20260510145605 71 296 2.0 0.0 0.00 0.00 0.00 24 1015.0
20260510145042 72 322 1.0 0.0 0.00 0.00 0.00 25 1014.9
20260510144526 72 327 1.0 0.0 0.00 0.00 0.00 25 1014.7
20260510144002 71 335 0.0 0.0 0.00 0.00 0.00 25 1014.7
20260510143543 71 334 0.0 0.0 0.00 0.00 0.00 26 1014.8
20260510143028 71 334 0.0 0.0 0.00 0.00 0.00 26 1014.8
20260510142502 70 334 0.0 0.0 0.00 0.00 0.00 26 1014.8
20260510142044 70 334 0.0 0.0 0.00 0.00 0.00 27 1014.7
20260510141526 69 334 0.0 0.0 0.00 0.00 0.00 27 1014.7
20260510141008 69 334 0.0 0.0 0.00 0.00 0.00 28 1014.7
20260510140548 68 334 0.0 0.0 0.00 0.00 0.00 27 1014.7
20260510140028 67 334 0.0 0.0 0.00 0.00 0.00 28 1014.6
20260510135509 66 334 0.0 0.0 0.00 0.00 0.00 30 1014.6
20260510135055 65 334 0.0 0.0 0.00 0.00 0.00 30 1014.6
20260510134534 64 334 0.0 0.0 0.00 0.00 0.00 33 1014.5
20260510134009 63 334 0.0 0.0 0.00 0.00 0.00 35 1014.5
20260510133551 63 334 0.0 0.0 0.00 0.00 0.00 35 1014.5
20260510133031 62 334 0.0 0.0 0.00 0.00 0.00 36 1014.5
20260510132514 62 334 0.0 0.0 0.00 0.00 0.00 36 1014.5
20260510132057 62 334 0.0 0.0 0.00 0.00 0.00 35 1014.5
20260510131540 62 334 0.0 0.0 0.00 0.00 0.00 34 1014.4
20260510131019 62 334 0.0 0.0 0.00 0.00 0.00 34 1014.3
20260510130607 61 334 0.0 0.0 0.00 0.00 0.00 33 1014.4
20260510130047 61 334 0.0 0.0 0.00 0.00 0.00 33 1014.2
20260510125526 61 334 0.0 0.0 0.00 0.00 0.00 33 1014.3
20260510125008 62 334 0.0 0.0 0.00 0.00 0.00 32 1014.1
20260510124549 62 334 0.0 0.0 0.00 0.00 0.00 32 1014.1
20260510124030 62 334 0.0 0.0 0.00 0.00 0.00 32 1014.0
20260510123512 62 38 0.0 0.0 0.00 0.00 0.00 31 1013.9
20260510123054 63 38 0.0 0.0 0.00 0.00 0.00 31 1013.9
20260510122539 63 38 0.0 0.0 0.00 0.00 0.00 31 1013.7
20260510122016 63 38 0.0 0.0 0.00 0.00 0.00 30 1013.6
20260510121602 64 38 0.0 0.0 0.00 0.00 0.00 30 1013.6
20260510121042 64 38 0.0 0.0 0.00 0.00 0.00 30 1013.5
20260510120527 64 38 0.0 0.0 0.00 0.00 0.00 29 1013.6
20260510120005 65 38 0.0 0.0 0.00 0.00 0.00 28 1013.5
20260510115549 65 38 0.0 0.0 0.00 0.00 0.00 27 1013.4
20260510115028 65 38 0.0 0.0 0.00 0.00 0.00 27 1013.4
20260510114511 65 38 0.0 0.0 0.00 0.00 0.00 27 1013.5
20260510114054 65 38 0.0 0.0 0.00 0.00 0.00 27 1013.4
20260510113538 65 38 0.0 0.0 0.00 0.00 0.00 27 1013.4
20260510113023 65 38 0.0 0.0 0.00 0.00 0.00 27 1013.2
20260510112503 64 113 0.0 0.0 0.00 0.00 0.00 27 1013.1
20260510112048 64 113 2.0 0.0 0.00 0.00 0.00 27 1013.2
20260510111525 64 113 2.0 0.0 0.00 0.00 0.00 28 1013.3
20260510111005 63 312 0.0 0.0 0.00 0.00 0.00 28 1013.6
20260510110553 63 311 0.0 0.0 0.00 0.00 0.00 28 1013.7
20260510110036 63 312 0.0 0.0 0.00 0.00 0.00 29 1013.9
20260510105512 63 311 0.0 0.0 0.00 0.00 0.00 28 1014.1
20260510105056 63 311 0.0 0.0 0.00 0.00 0.00 29 1014.2
20260510104537 63 311 0.0 0.0 0.00 0.00 0.00 28 1014.2
20260510104016 63 311 0.0 0.0 0.00 0.00 0.00 28 1014.1
20260510103600 63 311 0.0 0.0 0.00 0.00 0.00 29 1014.1
20260510103042 63 311 0.0 0.0 0.00 0.00 0.00 28 1014.0
20260510102521 63 311 0.0 0.0 0.00 0.00 0.00 28 1013.9
20260510102000 63 311 0.0 0.0 0.00 0.00 0.00 28 1013.7
20260510101550 63 311 0.0 0.0 0.00 0.00 0.00 28 1013.5
20260510101026 63 311 0.0 0.0 0.00 0.00 0.00 28 1013.5
20260510100505 63 311 0.0 0.0 0.00 0.00 0.00 28 1013.4
20260510100051 63 311 0.0 0.0 0.00 0.00 0.00 28 1013.5
20260510095528 63 311 0.0 0.0 0.00 0.00 0.00 28 1013.4
20260510095013 64 311 0.0 0.0 0.00 0.00 0.00 27 1013.5
20260510094557 64 311 0.0 0.0 0.00 0.00 0.00 27 1013.5
20260510094044 64 311 0.0 0.0 0.00 0.00 0.00 27 1013.5
20260510093529 64 311 0.0 0.0 0.00 0.00 0.00 26 1013.6
20260510093014 64 311 0.0 0.0 0.00 0.00 0.00 27 1013.6
20260510092600 64 311 0.0 0.0 0.00 0.00 0.00 26 1013.6
20260510092047 64 313 0.0 0.0 0.00 0.00 0.00 26 1013.5
20260510091529 64 313 0.0 0.0 0.00 0.00 0.00 26 1013.4
20260510091007 64 313 0.0 0.0 0.00 0.00 0.00 26 1013.3
20260510090556 64 313 0.0 0.0 0.00 0.00 0.00 26 1013.2
20260510090052 65 313 0.0 0.0 0.00 0.00 0.00 26 1013.0
20260510085525 65 313 0.0 0.0 0.00 0.00 0.00 26 1012.9
20260510085013 65 313 0.0 0.0 0.00 0.00 0.00 26 1012.7
20260510084604 65 313 0.0 0.0 0.00 0.00 0.00 26 1012.7
20260510084048 65 313 0.0 0.0 0.00 0.00 0.00 25 1012.7
20260510083534 65 313 0.0 0.0 0.00 0.00 0.00 25 1012.5
20260510083015 65 313 0.0 0.0 0.00 0.00 0.00 24 1012.5
20260510082503 65 313 0.0 0.0 0.00 0.00 0.00 24 1012.6
20260510082052 65 313 0.0 0.0 0.00 0.00 0.00 25 1012.5
20260510081548 65 313 0.0 0.0 0.00 0.00 0.00 24 1012.2
20260510081022 65 313 0.0 0.0 0.00 0.00 0.00 24 1012.2
20260510080604 65 313 0.0 0.0 0.00 0.00 0.00 24 1012.1
20260510080047 65 313 0.0 0.0 0.00 0.00 0.00 24 1012.1
20260510075520 65 313 0.0 0.0 0.00 0.00 0.00 23 1012.2
20260510075012 65 313 0.0 0.0 0.00 0.00 0.00 23 1012.2
20260510074602 65 313 0.0 0.0 0.00 0.00 0.00 23 1012.2
20260510074033 65 308 0.0 0.0 0.00 0.00 0.00 23 1012.2
20260510073516 66 308 0.0 0.0 0.00 0.00 0.00 23 1012.2
20260510073000 66 308 0.0 0.0 0.00 0.00 0.00 23 1012.1
20260510072549 66 333 0.0 0.0 0.00 0.00 0.00 23 1012.1
20260510072034 67 333 0.0 0.0 0.00 0.00 0.00 23 1012.1
20260510071512 67 333 0.0 0.0 0.00 0.00 0.00 23 1012.1
20260510071057 67 333 0.0 0.0 0.00 0.00 0.00 23 1012.1
20260510070540 67 333 0.0 0.0 0.00 0.00 0.00 23 1012.1
20260510070017 67 333 0.0 0.0 0.00 0.00 0.00 23 1012.1
20260510065507 68 333 0.0 0.0 0.00 0.00 0.00 22 1011.9
20260510065057 68 333 0.0 0.0 0.00 0.00 0.00 22 1011.9
20260510064530 68 333 0.0 0.0 0.00 0.00 0.00 22 1011.9
20260510064013 68 333 0.0 0.0 0.00 0.00 0.00 22 1011.7
20260510063503 68 333 0.0 0.0 0.00 0.00 0.00 22 1011.7
20260510063046 68 333 0.0 0.0 0.00 0.00 0.00 21 1011.6
20260510062534 68 333 0.0 0.0 0.00 0.00 0.00 21 1011.6
20260510062018 68 333 0.0 0.0 0.00 0.00 0.00 20 1011.5
20260510061506 68 332 0.0 0.0 0.00 0.00 0.00 20 1011.5
20260510061054 68 332 0.0 0.0 0.00 0.00 0.00 20 1011.5
20260510060540 68 332 0.0 0.0 0.00 0.00 0.00 20 1011.4
20260510060024 68 333 1.0 0.0 0.00 0.00 0.00 20 1011.4
20260510055513 68 301 0.0 0.0 0.00 0.00 0.00 20 1011.4
20260510055058 68 306 0.0 0.0 0.00 0.00 0.00 20 1011.4
20260510054546 68 309 0.0 0.0 0.00 0.00 0.00 20 1011.3
20260510054030 69 309 1.0 0.0 0.00 0.00 0.00 19 1011.3
20260510053515 69 309 1.0 0.0 0.00 0.00 0.00 20 1011.2
20260510053002 69 309 0.0 0.0 0.00 0.00 0.00 19 1011.2
20260510052550 69 331 0.0 0.0 0.00 0.00 0.00 19 1011.0
20260510052034 70 340 0.0 0.0 0.00 0.00 0.00 19 1011.0
20260510051518 71 340 0.0 0.0 0.00 0.00 0.00 19 1011.0
20260510051006 71 340 0.0 0.0 0.00 0.00 0.00 19 1010.9
20260510050555 71 340 0.0 0.0 0.00 0.00 0.00 19 1010.8
20260510050040 72 340 0.0 0.0 0.00 0.00 0.00 19 1010.7
20260510045524 72 340 0.0 0.0 0.00 0.00 0.00 18 1010.7
20260510045012 72 340 0.0 0.0 0.00 0.00 0.00 18 1010.7
20260510044637 73 340 0.0 0.0 0.00 0.00 0.00 18 1010.8
20260510044039 73 340 0.0 0.0 0.00 0.00 0.00 17 1010.8
20260510043518 73 340 0.0 0.0 0.00 0.00 0.00 17 1010.7
20260510043002 73 338 0.0 0.0 0.00 0.00 0.00 17 1010.7
20260510042544 74 338 0.0 0.0 0.00 0.00 0.00 17 1010.6
20260510042028 74 342 0.0 0.0 0.00 0.00 0.00 17 1010.7
20260510041515 74 342 0.0 0.0 0.00 0.00 0.00 17 1010.7
20260510041002 75 342 1.0 0.0 0.00 0.00 0.00 16 1010.6
20260510040547 75 355 1.0 0.0 0.00 0.00 0.00 16 1010.6
20260510040032 75 321 0.0 0.0 0.00 0.00 0.00 16 1010.7
20260510035519 76 301 0.0 0.0 0.00 0.00 0.00 16 1010.7
20260510035004 76 300 2.0 0.0 0.00 0.00 0.00 16 1010.7
20260510034550 76 301 2.0 0.0 0.00 0.00 0.00 16 1010.5
20260510034028 76 318 4.0 0.0 0.00 0.00 0.00 15 1010.6
20260510033514 76 287 4.0 0.0 0.00 0.00 0.00 15 1010.5
20260510033102 76 268 3.0 0.0 0.00 0.00 0.00 15 1010.2
20260510032549 76 296 2.0 0.0 0.00 0.00 0.00 16 1010.1
20260510032034 76 298 2.0 0.0 0.00 0.00 0.00 16 1009.9
20260510031522 76 291 1.0 0.0 0.00 0.00 0.00 17 1009.9
20260510031103 76 310 0.0 0.0 0.00 0.00 0.00 18 1009.9
20260510030540 76 341 0.0 0.0 0.00 0.00 0.00 18 1009.7
20260510030031 77 341 0.0 0.0 0.00 0.00 0.00 18 1009.7
20260510025506 77 341 0.0 0.0 0.00 0.00 0.00 18 1009.7
20260510025055 77 341 0.0 0.0 0.00 0.00 0.00 18 1009.6
20260510024539 77 341 0.0 0.0 0.00 0.00 0.00 18 1009.7
20260510024027 77 341 0.0 0.0 0.00 0.00 0.00 18 1009.4
20260510023515 77 341 0.0 0.0 0.00 0.00 0.00 18 1009.2
20260510023104 78 341 0.0 0.0 0.00 0.00 0.00 17 1009.2
20260510022537 78 341 0.0 0.0 0.00 0.00 0.00 17 1009.1
20260510022017 78 333 0.0 0.0 0.00 0.00 0.00 17 1009.1
20260510021603 78 333 0.0 0.0 0.00 0.00 0.00 17 1009.0
20260510021048 78 355 0.0 0.0 0.00 0.00 0.00 17 1009.0
20260510020531 78 275 0.0 0.0 0.00 0.00 0.00 17 1009.0
20260510020011 79 295 0.0 0.0 0.00 0.00 0.00 17 1009.0
20260510015557 79 295 0.0 0.0 0.00 0.00 0.00 17 1009.0
20260510015040 79 295 0.0 0.0 0.00 0.00 0.00 17 1008.9
20260510014521 79 295 0.0 0.0 0.00 0.00 0.00 17 1008.9
20260510014002 79 295 0.0 0.0 0.00 0.00 0.00 17 1008.9
20260510013545 79 296 0.0 0.0 0.00 0.00 0.00 17 1008.8
20260510013025 80 299 2.0 0.0 0.00 0.00 0.00 16 1008.8
20260510012503 80 280 2.0 0.0 0.00 0.00 0.00 16 1008.8
20260510012047 80 279 1.0 0.0 0.00 0.00 0.00 16 1008.8
20260510011527 80 288 1.0 0.0 0.00 0.00 0.00 16 1008.9
20260510011008 80 269 1.0 0.0 0.00 0.00 0.00 16 1008.7
20260510010550 80 233 1.0 0.0 0.00 0.00 0.00 16 1008.6
20260510010031 81 233 4.0 0.0 0.00 0.00 0.00 15 1008.7
20260510005516 81 190 4.0 0.0 0.00 0.00 0.00 15 1009.4
20260510005059 81 242 1.0 0.0 0.00 0.00 0.00 15 1008.8
20260510004542 82 239 1.0 0.0 0.00 0.00 0.00 14 1008.5
20260510004024 82 268 0.0 0.0 0.00 0.00 0.00 14 1008.5
20260510003503 82 268 1.0 0.0 0.00 0.00 0.00 14 1008.4
20260510003046 82 245 3.0 0.0 0.00 0.00 0.00 14 1008.4
20260510002525 83 254 3.0 0.0 0.00 0.00 0.00 15 1008.4
20260510002012 83 221 5.0 0.0 0.00 0.00 0.00 15 1008.3
20260510001603 83 265 6.0 0.0 0.00 0.00 0.00 15 1008.3
20260510001041 83 179 7.0 0.0 0.00 0.00 0.00 15 1008.4
20260510000518 84 218 6.0 0.0 0.00 0.00 0.00 14 1008.5
20260510000001 83 200 6.0 0.0 0.00 0.00 0.00 15 1008.4
20260509235542 83 200 8.0 0.0 0.00 0.00 0.00 15 1008.5
20260509235022 83 219 8.0 0.0 0.00 0.00 0.00 15 1008.4
20260509234503 83 228 7.0 0.0 0.00 0.00 0.00 14 1008.5
20260509234046 83 291 5.0 0.0 0.00 0.00 0.00 14 1008.5
20260509233526 83 233 5.0 0.0 0.00 0.00 0.00 14 1008.6
20260509233006 83 300 8.0 0.0 0.00 0.00 0.00 14 1008.5
20260509232552 84 225 5.0 0.0 0.00 0.00 0.00 13 1008.6
20260509232035 84 291 2.0 0.0 0.00 0.00 0.00 14 1008.5
20260509231514 84 290 4.0 0.0 0.00 0.00 0.00 14 1008.5
20260509231058 84 289 3.0 0.0 0.00 0.00 0.00 14 1008.5